This is the latest recevied weather packets stored in our database for station/object KY0TEQ-13. If no packets are shown the sender has not sent any weather packets the latest 10 day(s).
| Time | Temp. | Humidity | Pressure | Rain* | Wind** | Luminosity | Snow |
|---|---|---|---|---|---|---|---|
| 1788644431 | 28.33° C | 24% | 1308.2 hPa | 0 mm | - | 533 W/m² | - |
| 1788644127 | 27.78° C | 24% | 1308 hPa | 0 mm | - | 541 W/m² | - |
| 1788643822 | 27.22° C | 25% | 1308 hPa | 0 mm | - | 553 W/m² | - |
| 1788643517 | 27.22° C | 25% | 1308.4 hPa | 0 mm | - | 566 W/m² | - |
| 1788643216 | 27.78° C | 24% | 1308.2 hPa | 0 mm | - | 587 W/m² | - |
| 1788642912 | 27.78° C | 24% | 1308.3 hPa | 0 mm | - | 592 W/m² | - |
| 1788642608 | 27.78° C | 25% | 1308.4 hPa | 0 mm | - | 593 W/m² | - |
| 1788642303 | 26.67° C | 26% | 1308.4 hPa | 0 mm | - | 606 W/m² | - |
| 1788642003 | 26.67° C | 26% | 1308.6 hPa | 0 mm | - | 613 W/m² | - |
| 1788641697 | 26.67° C | 27% | 1308.5 hPa | 0 mm | - | 632 W/m² | - |
| 1788641395 | 27.78° C | 26% | 1308.5 hPa | 0 mm | - | 642 W/m² | - |
| 1788641091 | 27.22° C | 27% | 1308.5 hPa | 0 mm | - | 636 W/m² | - |
| 1788640791 | 26.67° C | 26% | 1308.4 hPa | 0 mm | - | 659 W/m² | - |
| 1788640486 | 26.67° C | 28% | 1308.5 hPa | 0 mm | - | 643 W/m² | - |
| 1788640182 | 26.67° C | 27% | 1308.8 hPa | 0 mm | - | 666 W/m² | - |
| 1788639877 | 26.11° C | 28% | 1308.9 hPa | 0 mm | - | 690 W/m² | - |
| 1788639572 | 25.56° C | 29% | 1308.9 hPa | 0 mm | - | 434 W/m² | - |
| 1788639267 | 27.22° C | 27% | 1309 hPa | 0 mm | - | 269 W/m² | - |
| 1788638967 | 26.67° C | 26% | 1308.9 hPa | 0 mm | - | 712 W/m² | - |
| 1788638663 | 27.22° C | 27% | 1309.1 hPa | 0 mm | - | 688 W/m² | - |
| 1788638361 | 26.11° C | 27% | 1309.4 hPa | 0 mm | - | 678 W/m² | - |
| 1788638056 | 26.67° C | 28% | 1309.1 hPa | 0 mm | - | 681 W/m² | - |
| 1788637452 | 26.67° C | 28% | 1309.1 hPa | 0 mm | - | 701 W/m² | - |
| 1788637152 | 26.67° C | 28% | 1309.3 hPa | 0 mm | - | 211 W/m² | - |
| 1788636852 | 26.67° C | 28% | 1309.4 hPa | 0 mm | - | 190 W/m² | - |
* Rain latest hour (hover to see other rain measurements)
** Current wind speed in m/s (hover to see current wind gust speed)